Location: Champseau
(45.8333°N, 1.7667°E)
Time: 05:47:28
(UTC+00:00)

CZ-4C R/B - Pass Details

Date: 18 April 2021
Orbit: 612 x 1390 km, 63.4° (Epoch: 14 May)

Event Time Altitude Azimuth Distance (km) Brightness Sun altitude
Rises 20:13:32 0° 258° (WSW) 3,114 5.9 -14.9°
Reaches altitude 10° 20:16:02 10° 271° (W) 2,290 5.3 -15.3°
Maximum altitude 20:20:34 28° 330° (NNW) 1,544 4.3 -15.9°
Drops below altitude 10° 20:25:55 10° 28° (NNE) 2,729 4.9 -16.6°
Sets 20:29:11 0° 40° (NE) 3,828 5.6 -17.1°
